Location: Parkway Village
(35.0643°N, 89.9062°W)
Time: 15:50:56
(UTC+00:00)

BlueWalker 3 - Pass Details

Date: 21 August 2024
Orbit: 475 x 487 km, 53.2° (Epoch: 17 September)

Event Time Altitude Azimuth Distance (km) Brightness Sun altitude
Rises 10:02:04 0° 321° (NW) 2,565 5.4 -16.5°
Reaches altitude 10° 10:04:21 10° 329° (NNW) 1,682 4.6 -16.1°
Maximum altitude 10:07:56 39° 39° (NE) 744 3.3 -15.4°
Drops below altitude 10° 10:11:31 10° 110° (ESE) 1,674 5.2 -14.8°
Sets 10:13:46 0° 118° (ESE) 2,551 6.1 -14.4°
